User: anonymous   Login
Location: Unspecified
(0.0000°N, 0.0000°E)
Time: 21:49:17
(UTC+00:00)
Language:

NUSAT 2 - Orbit

View from above orbital plane
View from above orbital plane
View from above satellite
View from above satellite

Ground track
Ground track

The orbit data is extracted from the following two-line orbital elements,

1 41558U 16033C   23083.53891155  .00072485  00000-0  12211-2 0  9994
2 41558  97.4110 196.1504 0006330  84.5374  44.1030 15.51427601380797
Epoch (UTC): 24 March 2023 12:56:01
Eccentricity: 0.0006330
inclination: 97.4110°
perigee height: 408 km
apogee height: 417 km
right ascension of ascending node: 196.1504°
argument of perigee: 84.5374°
revolutions per day: 15.51427601
mean anomaly at epoch: 44.1030°
orbit number at epoch: 38079

The dashed part of the orbit path shows where the satellite is in the earth's shadow,  

DLR